Location: Fredericksburg
(30.2750°N, 98.8720°W)
Time: 13:15:27
(UTC-06:00)

Amateur Radio Satellites - All Passes

Search period start: 28 February 2015 12:45
Search period end: 01 March 2015 12:45
Location: Fredericksburg, 30.2750°N, 98.8720°W

Satellite Date Start Highest point End Downlink Frequencies (MHz)
Time Altitude Azimuth
ITUPSAT 1 28 Feb 13:06:06 13:08:38 15° 93° (E) 13:11:25 437.325
CUBEBUG 1 28 Feb 13:11:50 13:13:25 11° 291° (WNW) 13:14:44 437.445
ITAMSAT 1 28 Feb 13:31:32 13:35:56 30° 72° (ENE) 13:40:28 435.822/435.867
Oscar 19 28 Feb 13:38:12 13:43:20 70° 259° (WSW) 13:48:28 437.125/150
SPROUT 28 Feb 13:53:15 13:55:51 15° 289° (WNW) 13:58:14 437.525
SWISSCUBE 28 Feb 14:07:06 14:11:57 86° 103° (ESE) 14:16:44 437.505
TISAT 1 28 Feb 14:07:24 14:08:54 11° 290° (WNW) 14:10:09 437.305
BEESAT 28 Feb 14:16:15 14:21:04 82° 282° (WNW) 14:25:51 436.000
Gurwin Techsat 1B 28 Feb 14:27:23 14:32:41 81° 78° (ENE) 14:38:02 435.225
HORYU 2 28 Feb 14:28:33 14:31:23 17° 71° (ENE) 14:34:23 437.375
AO-7 28 Feb 14:33:07 14:39:03 23° 62° (ENE) 14:45:21 29.400- 29.500
ITUPSAT 1 28 Feb 14:42:13 14:46:47 42° 286° (WNW) 14:51:17 437.325
KKS-1 28 Feb 15:08:34 15:12:59 67° 101° (E) 15:17:22 437.445
ITAMSAT 1 28 Feb 15:11:09 15:15:26 25° 264° (W) 15:19:37 435.822/435.867
JAS-2 28 Feb 15:15:45 15:18:54 16° 66° (ENE) 15:22:28 435.910
STARS 28 Feb 15:20:49 15:25:07 57° 100° (E) 15:29:24 437.465
YUBILEINY 28 Feb 15:41:19 15:48:03 27° 87° (E) 15:55:08 435.215
HORYU 2 28 Feb 16:03:53 16:07:51 31° 262° (W) 16:11:46 437.375
AO-7 28 Feb 16:23:01 16:31:18 66° 256° (WSW) 16:39:35 29.400- 29.500
M-CUBED/EXP-1 PRIME 28 Feb 16:37:00 16:41:05 41° 104° (ESE) 16:45:28 437.505
AUBIESAT-1 28 Feb 16:41:06 16:45:10 41° 103° (ESE) 16:49:33 437.475
CUTE-I 28 Feb 16:52:02 16:53:42 12° 67° (ENE) 16:55:43 437.470
JAS-2 28 Feb 16:58:30 17:03:34 47° 262° (W) 17:09:03 435.910
BEESAT 3 28 Feb 17:01:31 17:04:23 19° 111° (ESE) 17:07:24 437.485
ISS 28 Feb 17:15:03 17:18:04 34° 42° (NE) 17:21:05 145.825
BEESAT 2 28 Feb 17:23:34 17:27:08 30° 112° (ESE) 17:30:48 435.950
YUBILEINY 28 Feb 17:36:04 17:44:29 51° 281° (W) 17:52:55 435.215
MOZHAYETS 4 28 Feb 17:38:58 17:43:31 57° 284° (WNW) 17:48:04
PHONESAT 2.4 28 Feb 17:48:21 17:51:21 25° 143° (SE) 17:54:23 2401.200-2431.200
CUBESAT XI-V 28 Feb 17:56:36 17:58:11 12° 91° (E) 18:00:04 437.345
VERMONT LUNAR 28 Feb 18:00:54 18:04:23 78° 150° (SSE) 18:07:53 437.305
PRISM 28 Feb 18:04:08 18:06:16 14° 93° (E) 18:08:37 437.425
M-CUBED/EXP-1 PRIME 28 Feb 18:13:18 18:15:48 15° 292° (WNW) 18:18:11 437.505
AUBIESAT-1 28 Feb 18:17:17 18:19:49 15° 292° (WNW) 18:22:15 437.475
Cubesat XI-IV 28 Feb 18:18:12 18:23:34 85° 257° (WSW) 18:28:58 437.490
CUTE-I 28 Feb 18:27:57 18:33:16 69° 258° (WSW) 18:38:38 437.470
BEESAT 3 28 Feb 18:38:52 18:42:20 26° 304° (NW) 18:45:48 437.485
STRAND 1 28 Feb 18:41:23 18:45:28 24° 95° (E) 18:49:39 437.568
AIST 2 28 Feb 18:45:13 18:49:26 78° 297° (WNW) 18:53:44 435.215
ISS 28 Feb 18:52:36 18:54:17 13° 233° (SW) 18:55:50 145.825
BEESAT 2 28 Feb 19:02:32 19:05:24 18° 307° (NW) 19:08:10 435.950
AIST 1 28 Feb 19:16:17 19:20:43 86° 265° (W) 19:25:05
PHONESAT 2.4 28 Feb 19:26:09 19:29:41 48° 335° (NNW) 19:33:13 2401.200-2431.200
CUBESAT XI-V 28 Feb 19:31:24 19:35:58 49° 285° (WNW) 19:40:27 437.345
PRISM 28 Feb 19:38:04 19:41:54 34° 286° (WNW) 19:45:42 437.425
CANX-2 28 Feb 19:38:32 19:40:02 12° 70° (ENE) 19:41:49 2200.000
VERMONT LUNAR 28 Feb 19:39:42 19:42:34 23° 344° (NNW) 19:45:26 437.305
BRITE-PL 28 Feb 19:47:23 19:52:24 34° 73° (ENE) 19:57:25 437.365/2234.400
CUTE 1.7 + AOD 2 28 Feb 19:56:05 19:58:55 18° 72° (ENE) 20:01:54 437.475
GOMX 1 28 Feb 20:04:08 20:08:55 33° 74° (ENE) 20:13:39 467.674
HO-68 28 Feb 20:08:36 20:15:20 48° 71° (ENE) 20:22:09 435.675
STRAND 1 28 Feb 20:20:12 20:24:40 29° 288° (WNW) 20:29:01 437.568
Oscar 11 28 Feb 20:26:13 20:27:09 11° 70° (ENE) 20:28:22 145.826/435.025
O/OREOS (USA 219) 28 Feb 20:37:03 20:41:38 75° 253° (WSW) 20:46:09 437.305
AAUSAT CUBESAT 2 28 Feb 20:47:12 20:51:08 45° 76° (ENE) 20:55:07 437.432
COMPASS 1 28 Feb 20:47:52 20:51:55 55° 77° (ENE) 20:56:00 437.405
PCSat 28 Feb 20:49:07 20:54:17 49° 111° (ESE) 20:59:31 145.827
DOVE 4 28 Feb 20:49:14 20:54:27 67° 77° (ENE) 20:59:29 437.250
FUNcube-1 28 Feb 21:04:36 21:07:07 16° 72° (ENE) 21:09:48 145.935
ZACube-1 28 Feb 21:04:55 21:07:32 16° 72° (ENE) 21:10:18 437.345
PHONESAT 2.4 28 Feb 21:06:07 21:08:42 18° 351° (N) 21:11:16 2401.200-2431.200
CANX-2 28 Feb 21:11:42 21:15:41 40° 262° (W) 21:19:39 2200.000
SEEDS 28 Feb 21:11:53 21:15:59 55° 260° (W) 21:20:06 437.485
CINEMA 3 28 Feb 21:14:09 21:19:00 65° 76° (ENE) 21:23:40 145.822/145.860
UKube-1 28 Feb 21:16:37 21:19:48 21° 71° (ENE) 21:23:07 .
UWE-3 28 Feb 21:17:45 21:21:36 29° 74° (ENE) 21:25:26 435.000/436.395/437.385
VERMONT LUNAR 28 Feb 21:19:11 21:21:16 15° 1° (N) 21:23:22 437.305
BRITE-PL 28 Feb 21:26:10 21:30:54 26° 265° (W) 21:35:26 437.365/2234.400
HUMSAT D 28 Feb 21:26:20 21:28:17 13° 71° (ENE) 21:30:27 437.325/437.525
CUTE 1.7 + AOD 2 28 Feb 21:31:08 21:34:43 26° 264° (W) 21:38:13 437.475
GOMX 1 28 Feb 21:42:33 21:47:01 25° 265° (W) 21:51:16 467.674
50 SAT 28 Feb 21:45:59 21:48:12 15° 72° (ENE) 21:50:36 437.505
GONETS M04 28 Feb 21:48:27 21:56:18 41° 90° (E) 22:04:19
CUBEBUG 2 28 Feb 21:49:46 21:54:24 90° 80° (E) 21:58:53 437.445
RS-15 28 Feb 21:53:16 21:58:44 16° 104° (ESE) 22:05:08 29.354- 29.394
HO-68 28 Feb 21:57:33 22:03:18 25° 265° (W) 22:08:50 435.675
Oscar 11 28 Feb 21:58:49 22:02:59 47° 261° (W) 22:07:08 145.826/435.025
DELFI C3 28 Feb 22:08:07 22:11:58 44° 261° (W) 22:15:50 145.870
AISAT 28 Feb 22:12:28 22:16:37 38° 74° (ENE) 22:20:49 437.250
DX 1 28 Feb 22:19:01 22:23:21 60° 259° (WSW) 22:27:42 434.975-435.025
VELOX 1 28 Feb 22:22:52 22:27:11 50° 75° (ENE) 22:31:33 145.980
CUBEBUG 1 28 Feb 22:24:36 22:27:47 20° 71° (ENE) 22:31:07 437.445
ESTCUBE 1 28 Feb 22:30:51 22:34:36 27° 73° (ENE) 22:38:26 437.505/2401.250
DOVE 4 28 Feb 22:31:24 22:32:36 10° 270° (W) 22:33:22 437.250
PCSat 28 Feb 22:34:16 22:38:02 18° 306° (NW) 22:41:36 145.827
FUNcube-1 28 Feb 22:39:11 22:43:15 34° 262° (W) 22:47:12 145.935
POLYITAN 1 28 Feb 22:39:37 22:42:12 16° 94° (E) 22:44:57 437.675
ZACube-1 28 Feb 22:39:39 22:43:43 33° 263° (W) 22:47:38 437.345
POPSAT HIP 1 28 Feb 22:41:14 22:43:52 17° 94° (E) 22:46:40 437.405
PHONESAT 2.4 28 Feb 22:45:29 22:48:01 18° 8° (N) 22:50:34 2401.200-2431.200
UNISAT 6 28 Feb 22:50:47 22:54:54 45° 99° (E) 22:59:06 437.425
UKube-1 28 Feb 22:52:13 22:55:51 25° 264° (W) 22:59:23 .
UWE-3 28 Feb 22:54:56 22:58:10 19° 266° (W) 23:01:12 435.000/436.395/437.385
VERMONT LUNAR 28 Feb 22:57:02 22:59:57 25° 17° (NNE) 23:02:53 437.305
HUMSAT D 28 Feb 22:59:52 23:03:49 36° 262° (W) 23:07:41 437.325/437.525
NANOSAT C BR1 28 Feb 23:04:19 23:08:07 33° 97° (E) 23:11:56 145.865
SPROUT 28 Feb 23:06:31 23:08:31 13° 70° (ENE) 23:10:44 437.525
DANDE 28 Feb 23:15:46 23:18:54 14° 93° (E) 23:22:16 436.750
TIGRISAT 28 Feb 23:16:49 23:21:06 84° 283° (WNW) 23:25:26 435.000
TISAT 1 28 Feb 23:17:26 23:20:02 17° 71° (ENE) 23:22:49 437.305
50 SAT 28 Feb 23:19:31 23:23:02 28° 263° (W) 23:26:29 437.505
ANTELSAT 28 Feb 23:29:16 23:33:29 56° 284° (WNW) 23:37:44 437.575/2403.000
QB50P1 28 Feb 23:36:14 23:40:29 90° 81° (E) 23:44:41 145.935-145.965
QB50P2 28 Feb 23:39:19 23:43:34 81° 281° (W) 23:47:45 145.880/145.840
GONETS M04 28 Feb 23:45:31 23:53:14 34° 285° (WNW) 00:00:46
AISAT 28 Feb 23:50:56 23:53:25 14° 267° (W) 23:55:40 437.250
CUSAT 1 28 Feb 23:54:53 00:01:25 39° 96° (E) 00:06:40 437.405
DUCHIFAT 1 28 Feb 23:56:27 00:00:32 49° 285° (WNW) 00:04:34 145.980
BUGSAT 1 28 Feb 23:57:51 00:01:58 66° 284° (WNW) 00:06:01 437.445
RS-15 28 Feb 23:59:05 00:10:02 88° 297° (WNW) 00:21:04 29.354- 29.394
CUBEBUG 1 01 Mar 00:00:14 00:04:02 27° 264° (W) 00:07:45 437.445
VELOX 1 01 Mar 00:03:04 00:04:06 10° 269° (W) 00:04:48 145.980
ESTCUBE 1 01 Mar 00:08:03 00:11:29 20° 266° (W) 00:14:47 437.505/2401.250
POLYITAN 1 01 Mar 00:14:33 00:18:13 29° 287° (WNW) 00:21:48 437.675
POPSAT HIP 1 01 Mar 00:16:11 00:19:49 28° 287° (WNW) 00:23:23 437.405
PHONESAT 2.4 01 Mar 00:23:33 00:27:03 46° 24° (NNE) 00:30:31 2401.200-2431.200
UNISAT 6 01 Mar 00:29:54 00:31:23 11° 290° (WNW) 00:32:37 437.425
VERMONT LUNAR 01 Mar 00:34:38 00:38:05 65° 212° (SSW) 00:41:29 437.305
SPROUT 01 Mar 00:40:14 00:44:19 39° 262° (W) 00:48:23 437.525
NANOSAT C BR1 01 Mar 00:41:18 00:43:44 15° 289° (WNW) 00:45:59 145.865
TISAT 1 01 Mar 00:51:49 00:55:39 31° 263° (W) 00:59:25 437.305
DANDE 01 Mar 00:54:35 01:02:19 76° 277° (W) 01:08:18 436.750
SWISSCUBE 01 Mar 01:08:04 01:12:39 50° 74° (ENE) 01:17:17 437.505
BEESAT 01 Mar 01:17:01 01:21:40 59° 75° (ENE) 01:26:22 436.000
CUSAT 1 01 Mar 01:38:37 01:44:14 25° 281° (WNW) 01:48:41 437.405
ITUPSAT 1 01 Mar 01:42:59 01:47:44 72° 258° (WSW) 01:52:32 437.325
ITAMSAT 1 01 Mar 01:51:03 01:54:13 17° 93° (E) 01:57:39 435.822/435.867
Oscar 19 01 Mar 01:55:37 02:00:43 68° 101° (E) 02:05:50 437.125/150
KKS-1 01 Mar 02:01:30 02:05:21 30° 73° (ENE) 02:09:16 437.445
JUGNU 01 Mar 02:01:57 02:05:43 17° 165° (SSE) 02:09:33 437.505
PHONESAT 2.4 01 Mar 02:02:21 02:05:23 25° 217° (SW) 02:08:22 2401.200-2431.200
STARS 01 Mar 02:12:47 02:16:21 25° 72° (ENE) 02:20:00 437.465
RS-15 01 Mar 02:16:12 02:24:14 22° 320° (NW) 02:31:53 29.354- 29.394
SO-50 01 Mar 02:19:51 02:24:22 74° 298° (WNW) 02:29:03 436.795
SWISSCUBE 01 Mar 02:48:57 02:50:52 12° 269° (W) 02:52:28 437.505
Gurwin Techsat 1B 01 Mar 02:49:37 02:54:48 53° 100° (E) 02:59:59 435.225
BEESAT 3 01 Mar 03:03:02 03:06:41 31° 57° (ENE) 03:10:20 437.485
AIST 2 01 Mar 03:14:13 03:16:15 13° 51° (NE) 03:18:27 435.215
M-CUBED/EXP-1 PRIME 01 Mar 03:22:56 03:24:57 16° 68° (ENE) 03:27:05 437.505
BEESAT 2 01 Mar 03:26:06 03:30:07 49° 60° (ENE) 03:34:04 435.950
AUBIESAT-1 01 Mar 03:26:37 03:28:35 15° 68° (ENE) 03:30:39 437.475
ITAMSAT 1 01 Mar 03:29:02 03:33:58 43° 287° (WNW) 03:38:49 435.822/435.867
Oscar 19 01 Mar 03:38:12 03:39:36 11° 293° (WNW) 03:40:39 437.125/150
KKS-1 01 Mar 03:38:52 03:42:03 18° 266° (W) 03:45:05 437.445
SRMSAT 01 Mar 03:47:59 03:52:01 19° 166° (SSE) 03:56:08 437.500
JUGNU 01 Mar 03:49:15 03:54:14 28° 174° (S) 03:59:16 437.505
STARS 01 Mar 03:49:19 03:52:47 22° 265° (W) 03:56:08 437.465
YUBILEINY 01 Mar 03:53:00 04:01:44 63° 81° (E) 04:10:27 435.215
HORYU 2 01 Mar 04:00:23 04:04:51 78° 102° (ESE) 04:09:18 437.375
JAS-2 01 Mar 04:12:07 04:18:50 35° 96° (E) 04:25:56 435.910
AO-7 01 Mar 04:31:07 04:39:19 64° 103° (ESE) 04:47:31 29.400- 29.500
Gurwin Techsat 1B 01 Mar 04:31:21 04:34:24 15° 292° (WNW) 04:37:10 435.225
MOZHAYETS 4 01 Mar 04:35:01 04:39:31 67° 77° (ENE) 04:44:03
BEESAT 3 01 Mar 04:42:00 04:44:33 16° 250° (WSW) 04:46:55 437.485
AIST 2 01 Mar 04:51:06 04:55:08 44° 246° (WSW) 04:59:06 435.215
M-CUBED/EXP-1 PRIME 01 Mar 04:57:36 04:59:52 17° 260° (W) 05:02:03 437.505
AUBIESAT-1 01 Mar 05:01:06 05:03:25 17° 260° (W) 05:05:39 437.475
SRMSAT 01 Mar 05:35:40 05:40:44 29° 175° (S) 05:45:49 437.500
JUGNU 01 Mar 05:37:43 05:42:50 29° 184° (S) 05:47:56 437.505
PCSat 01 Mar 05:44:53 05:47:07 13° 50° (NE) 05:49:39 145.827
YUBILEINY 01 Mar 05:51:33 05:57:58 22° 275° (W) 06:03:55 435.215
STRAND 1 01 Mar 05:52:13 05:55:49 20° 70° (ENE) 05:59:36 437.568
JAS-2 01 Mar 05:56:53 06:03:50 41° 288° (WNW) 06:10:57 435.910
PRISM 01 Mar 06:22:19 06:26:25 78° 77° (ENE) 06:30:35 437.425
AO-7 01 Mar 06:25:16 06:31:36 24° 297° (WNW) 06:37:34 29.400- 29.500
CUBESAT XI-V 01 Mar 06:28:39 06:33:18 82° 79° (ENE) 06:38:01 437.345
Cubesat XI-IV 01 Mar 06:41:31 06:46:51 64° 101° (E) 06:52:09 437.490
CUTE-I 01 Mar 06:51:00 06:56:23 79° 101° (E) 07:01:43 437.470
RS-15 01 Mar 06:57:22 07:03:13 16° 33° (NNE) 07:09:54 29.354- 29.394
SRMSAT 01 Mar 07:24:22 07:29:28 29° 185° (S) 07:34:33 437.500
PCSat 01 Mar 07:25:46 07:31:10 73° 248° (WSW) 07:36:33 145.827
JUGNU 01 Mar 07:27:02 07:31:23 21° 193° (SSW) 07:35:41 437.505
STRAND 1 01 Mar 07:30:04 07:34:48 36° 262° (W) 07:39:30 437.568
AIST 1 01 Mar 07:39:37 07:43:55 75° 95° (E) 07:48:17
HO-68 01 Mar 07:47:47 07:48:05 10° 89° (E) 07:49:09 435.675
BRITE-PL 01 Mar 08:00:49 08:02:34 12° 90° (E) 08:04:31 437.365/2234.400
GONETS M04 01 Mar 08:08:15 08:11:59 14° 66° (ENE) 08:16:30
ISS 01 Mar 08:14:57 08:17:00 16° 128° (SE) 08:19:09 145.825
GOMX 1 01 Mar 08:15:00 08:15:55 11° 90° (E) 08:17:08 467.674
Cubesat XI-IV 01 Mar 08:24:05 08:26:29 13° 293° (WNW) 08:28:32 437.490
AAUSAT CUBESAT 2 01 Mar 08:38:20 08:39:41 12° 92° (E) 08:41:18 437.432
COMPASS 1 01 Mar 08:38:49 08:40:59 14° 93° (E) 08:43:24 437.405
DOVE 4 01 Mar 08:55:39 08:59:02 24° 95° (E) 09:02:25 437.250
SEEDS 01 Mar 09:02:15 09:06:08 36° 98° (E) 09:10:04 437.485
CANX-2 01 Mar 09:02:36 09:06:44 50° 99° (E) 09:10:54 2200.000
O/OREOS (USA 219) 01 Mar 09:05:01 09:08:39 25° 103° (ESE) 09:12:27 437.305
RS-15 01 Mar 09:07:19 09:18:43 63° 59° (ENE) 09:30:38 29.354- 29.394
SRMSAT 01 Mar 09:14:00 09:18:10 19° 194° (SSW) 09:22:16 437.500
CINEMA 3 01 Mar 09:16:08 09:19:14 21° 95° (E) 09:22:25 145.822/145.860
CUTE 1.7 + AOD 2 01 Mar 09:21:22 09:25:37 81° 101° (E) 09:29:53 437.475
HO-68 01 Mar 09:29:36 09:36:50 86° 104° (ESE) 09:44:02 435.675
BRITE-PL 01 Mar 09:37:16 09:41:26 37° 286° (WNW) 09:45:20 437.365/2234.400
UNISAT 6 01 Mar 09:45:08 09:48:25 21° 72° (ENE) 09:51:46 437.425
CUBEBUG 2 01 Mar 09:47:27 09:50:57 27° 96° (E) 09:54:31 437.445
GOMX 1 01 Mar 09:50:21 09:54:26 40° 286° (WNW) 09:58:19 467.674
ISS 01 Mar 09:50:26 09:53:17 28° 320° (NW) 09:56:07 145.825
Oscar 11 01 Mar 09:51:51 09:56:00 45° 99° (E) 10:00:10 145.826/435.025
NANOSAT C BR1 01 Mar 09:53:19 09:55:10 13° 70° (ENE) 09:57:15 145.865
DELFI C3 01 Mar 09:53:49 09:57:35 36° 98° (E) 10:01:23 145.870
GONETS M04 01 Mar 10:01:23 10:10:10 89° 265° (W) 10:18:59
TIGRISAT 01 Mar 10:10:05 10:14:15 41° 75° (ENE) 10:18:23 435.000
AISAT 01 Mar 10:11:26 10:12:52 12° 92° (E) 10:14:36 437.250
AAUSAT CUBESAT 2 01 Mar 10:11:38 10:15:33 39° 285° (WNW) 10:19:27 437.432
COMPASS 1 01 Mar 10:13:03 10:16:50 32° 286° (WNW) 10:20:34 437.405
DX 1 01 Mar 10:13:27 10:17:26 35° 98° (E) 10:21:26 434.975-435.025
VELOX 1 01 Mar 10:20:48 10:23:18 15° 93° (E) 10:26:01 145.980
ANTELSAT 01 Mar 10:22:31 10:26:55 61° 76° (ENE) 10:31:15 437.575/2403.000
QB50P1 01 Mar 10:23:41 10:27:27 31° 74° (ENE) 10:31:16 145.935-145.965
QB50P2 01 Mar 10:26:50 10:30:42 35° 74° (ENE) 10:34:38 145.880/145.840
FUNcube-1 01 Mar 10:33:05 10:37:14 68° 102° (ESE) 10:41:22 145.935
DOVE 4 01 Mar 10:33:41 10:36:43 19° 289° (WNW) 10:39:33 437.250
ZACube-1 01 Mar 10:33:44 10:37:52 71° 101° (E) 10:42:02 437.345
SEEDS 01 Mar 10:39:28 10:41:42 14° 289° (WNW) 10:43:42 437.485
BUGSAT 1 01 Mar 10:42:13 10:46:09 38° 74° (ENE) 10:50:08 437.445
DUCHIFAT 1 01 Mar 10:43:01 10:47:11 54° 76° (ENE) 10:51:24 145.980
O/OREOS (USA 219) 01 Mar 10:44:27 10:48:03 22° 296° (WNW) 10:51:35 437.305
UKube-1 01 Mar 10:44:46 10:49:08 86° 102° (ESE) 10:53:27 .
UWE-3 01 Mar 10:49:22 10:53:26 55° 283° (WNW) 10:57:30 435.000/436.395/437.385
HUMSAT D 01 Mar 10:49:40 10:53:41 52° 100° (E) 10:57:42 437.325/437.525
CINEMA 3 01 Mar 10:53:12 10:56:25 21° 288° (WNW) 10:59:30 145.822/145.860
SO-50 01 Mar 10:57:25 11:01:17 23° 53° (NE) 11:05:14 436.795
POLYITAN 1 01 Mar 11:01:14 11:05:32 83° 258° (WSW) 11:09:51 437.675
POPSAT HIP 1 01 Mar 11:02:34 11:06:52 82° 258° (WSW) 11:11:11 437.405
50 SAT 01 Mar 11:03:18 11:07:10 52° 100° (E) 11:11:02 437.505
HO-68 01 Mar 11:20:07 11:23:49 14° 298° (WNW) 11:27:03 435.675
RS-15 01 Mar 11:20:50 11:30:42 31° 253° (WSW) 11:40:24 29.354- 29.394
UNISAT 6 01 Mar 11:21:22 11:25:06 25° 264° (W) 11:28:42 437.425
CUBEBUG 2 01 Mar 11:24:44 11:27:31 17° 288° (WNW) 11:30:08 437.445
NANOSAT C BR1 01 Mar 11:26:43 11:30:45 39° 261° (W) 11:34:46 145.865
Oscar 11 01 Mar 11:30:17 11:31:51 11° 290° (WNW) 11:33:08 145.826/435.025
DELFI C3 01 Mar 11:30:36 11:32:31 13° 289° (WNW) 11:34:12 145.870
DANDE 01 Mar 11:45:14 11:47:40 33° 80° (E) 11:50:07 436.750
AISAT 01 Mar 11:45:33 11:49:46 44° 286° (WNW) 11:53:57 437.250
TIGRISAT 01 Mar 11:49:08 11:51:13 13° 267° (W) 11:53:01 435.000
DX 1 01 Mar 11:50:52 11:53:26 15° 290° (WNW) 11:55:48 434.975-435.025
CUBEBUG 1 01 Mar 11:54:17 11:58:43 89° 118° (ESE) 12:03:04 437.445
VELOX 1 01 Mar 11:55:59 12:00:01 34° 287° (WNW) 12:03:59 145.980
QB50P1 01 Mar 12:00:42 12:03:25 16° 267° (W) 12:05:56 145.935-145.965
GONETS M04 01 Mar 12:02:24 12:06:05 13° 277° (W) 12:08:58
QB50P2 01 Mar 12:04:22 12:06:46 14° 267° (W) 12:08:56 145.880/145.840
ESTCUBE 1 01 Mar 12:05:21 12:09:51 61° 284° (WNW) 12:14:18 437.505/2401.250
BUGSAT 1 01 Mar 12:19:47 12:21:50 13° 268° (W) 12:23:38 437.445
CUSAT 1 01 Mar 12:24:11 12:26:16 21° 264° (W) 12:28:25 437.405
SPROUT 01 Mar 12:32:34 12:36:46 54° 100° (E) 12:40:57 437.525
